GW0815 Weather Reports


time (UTC)temp
C
wind
direction
speed
KPH
gust
KPH
rain 1hr
cm
rain 24hr
cm
rain mn
cm
humidity
%
barometer
mb
20260506001539 17 275 6.4 14.5 0.00 0.00 0.00 67 1015.3
20260506000039 17 269 8.0 16.1 0.00 0.00 0.00 67 1015.4
20260505234533 16 280 11.3 19.3 0.00 0.00 0.00 69 1015.6
20260505233031 16 268 11.3 17.7 0.00 0.00 0.00 69 1015.7
20260505231534 16 286 8.0 16.1 0.00 0.00 0.00 71 1015.7
20260505230034 16 298 9.7 16.1 0.00 0.00 0.00 72 1015.8
20260505224525 16 286 9.7 17.7 0.00 0.00 0.00 72 1015.9
20260505223030 15 277 8.0 16.1 0.00 0.00 0.00 73 1016.1
20260505221525 15 252 6.4 17.7 0.00 0.00 0.00 75 1016.2
20260505220020 15 269 8.0 17.7 0.00 0.00 0.00 74 1016.3
20260505214524 15 292 9.7 16.1 0.00 0.00 0.00 75 1016.4
20260505213019 15 269 11.3 17.7 0.00 0.00 0.00 76 1016.5
20260505211518 15 308 8.0 16.1 0.00 0.00 0.00 75 1016.5
20260505210016 15 238 8.0 17.7 0.00 0.00 0.00 75 1016.5
20260505204516 15 219 8.0 14.5 0.00 0.00 0.00 76 1016.5
20260505203013 14 280 9.7 17.7 0.00 0.00 0.00 76 1016.5
20260505201513 14 259 6.4 12.9 0.00 0.00 0.00 77 1016.5
20260505200008 14 229 6.4 19.3 0.00 0.00 0.00 78 1016.4
20260505194508 14 252 8.0 17.7 0.00 0.00 0.00 77 1016.5
20260505193006 13 259 8.0 14.5 0.00 0.00 0.00 78 1016.5
20260505191505 13 223 6.4 14.5 0.00 0.00 0.00 79 1016.4
20260505190003 13 220 4.8 14.5 0.00 0.00 0.00 80 1016.4
20260505184502 13 257 3.2 16.1 0.00 0.00 0.00 81 1016.4
20260505183107 13 208 9.7 14.5 0.00 0.00 0.00 82 1016.4
20260505181558 12 211 8.0 17.7 0.00 0.00 0.00 81 1016.4
20260505180058 12 218 8.0 12.9 0.00 0.00 0.00 82 1016.3
20260505174600 12 238 8.0 14.5 0.00 0.00 0.00 83 1016.3
20260505173054 12 227 9.7 16.1 0.00 0.00 0.00 83 1016.3
20260505171553 12 270 4.8 8.0 0.00 0.00 0.00 84 1016.2
20260505170050 12 269 4.8 8.0 0.00 0.00 0.00 84 1016.1
20260505164549 12 261 3.2 11.3 0.00 0.00 0.00 84 1016.0
20260505163047 12 255 6.4 12.9 0.00 0.00 0.00 84 1015.9
20260505161546 12 211 4.8 11.3 0.00 0.00 0.00 85 1015.8
20260505153043 12 240 4.8 12.9 0.00 0.00 0.00 86 1015.6
20260505151542 12 251 6.4 12.9 0.00 0.00 0.00 86 1015.6
20260505124534 11 222 11.3 19.3 0.00 0.00 0.00 88 1014.3
20260505123030 11 226 6.4 12.9 0.00 0.00 0.00 88 1014.2
20260505121534 11 234 9.7 12.9 0.00 0.00 0.00 87 1014.1
20260505120037 11 215 8.0 16.1 0.00 0.00 0.00 87 1014.0
20260505114523 11 229 9.7 16.1 0.00 0.00 0.00 87 1014.0
20260505113127 11 182 11.3 19.3 0.00 0.00 0.00 87 1013.9
20260505111521 11 210 9.7 19.3 0.00 0.00 0.00 88 1013.9
20260505101514 11 220 12.9 17.7 0.00 0.00 0.00 89 1013.4
20260505100014 11 213 12.9 22.5 0.00 0.00 0.00 89 1013.4
20260505094510 11 219 11.3 16.1 0.00 0.00 0.00 89 1013.3
20260505093009 11 206 14.5 27.4 0.00 0.00 0.00 89 1013.2
20260505091509 11 226 16.1 22.5 0.00 0.00 0.00 89 1013.1
20260505090016 11 220 16.1 30.6 0.00 0.00 0.00 89 1013.0
20260505084505 11 218 17.7 22.5 0.00 0.00 0.00 89 1012.9
20260505083012 11 232 16.1 20.9 0.00 0.00 0.00 89 1013.0
20260505081503 11 198 14.5 19.3 0.00 0.00 0.00 89 1012.9
20260505074558 11 201 12.9 17.7 0.00 0.00 0.00 89 1012.7
20260505073113 11 236 12.9 20.9 0.00 0.00 0.00 89 1012.5
20260505071600 11 200 16.1 22.5 0.00 0.00 0.00 89 1012.2
20260505070056 11 213 12.9 19.3 0.00 0.00 0.00 88 1012.3
20260505064550 11 225 11.3 17.7 0.00 0.00 0.00 88 1012.3
20260505063045 11 198 12.9 19.3 0.00 0.00 0.00 87 1012.1
20260505061545 12 201 11.3 14.5 0.00 0.00 0.00 86 1011.9
20260505060046 12 182 9.7 16.1 0.00 0.00 0.00 86 1011.8
20260505054536 12 225 11.3 16.1 0.00 0.00 0.00 85 1011.5
20260505053034 12 190 9.7 14.5 0.00 0.00 0.00 85 1011.6
20260505051539 12 222 8.0 14.5 0.00 0.00 0.00 84 1011.5
20260505041528 13 225 17.7 32.2 0.00 0.00 0.00 79 1010.7
20260505040026 14 209 19.3 25.7 0.00 0.00 0.00 76 1010.6
20260505034525 15 217 14.5 27.4 0.00 0.00 0.00 74 1010.3
20260505033025 16 234 16.1 29.0 0.00 0.00 0.00 70 1010.2
20260505031524 17 222 14.5 24.1 0.00 0.00 0.00 68 1010.1
20260505030023 17 227 14.5 24.1 0.00 0.00 0.00 65 1009.8
20260505024522 18 237 16.1 25.7 0.00 0.00 0.00 62 1009.7
20260505023024 19 257 16.1 29.0 0.00 0.00 0.00 60 1009.7
20260505021621 20 225 14.5 29.0 0.00 0.00 0.00 58 1009.6
20260505020021 21 248 16.1 30.6 0.00 0.00 0.00 54 1009.5
20260505014520 22 224 16.1 27.4 0.00 0.00 0.00 51 1009.5
20260505013019 23 235 14.5 24.1 0.00 0.00 0.00 49 1009.5
20260505011523 23 229 11.3 17.7 0.00 0.00 0.00 48 1009.6
20260505010017 23 236 11.3 16.1 0.00 0.00 0.00 48 1009.6
20260505004521 25 254 11.3 20.9 0.00 0.00 0.00 45 1009.6
20260505003015 25 259 9.7 19.3 0.00 0.00 0.00 46 1009.6